Location: Unspecified
(0.0000°N, 0.0000°E)
Time: 07:42:02
(UTC+00:00)

KAITUO 1B - Pass Details

Date: 31 March 2019
Orbit: 497 x 517 km, 97.4° (Epoch: 16 June)

Event Time Altitude Azimuth Distance (km) Brightness Sun altitude
Rises 05:36:15 0° 23° (NNE) 2,588 ? -7.0°
Reaches altitude 10° 05:38:24 10° 31° (NNE) 1,711 ? -6.5°
Maximum altitude 05:41:52 40° 101° (ESE) 759 ? -5.6°
Drops below altitude 10° 05:45:23 10° 172° (S) 1,731 ? -4.7°
Sets 05:47:34 0° 179° (S) 2,623 ? -4.2°
